Tracking 25405 objects as of 26-Jan-2022
HD Live streaming from Space Station
objects crossing your sky now

STARLINK-1862

Track STARLINK-1862 now!
10-day predictions
STARLINK-1862 is classified as:


NORAD ID: 47149
Int'l Code: 2020-088AD
Perigee: 552.8 km
Apogee: 555.9 km
Inclination: 53.1 °
Period: 95.6 minutes
Semi major axis: 6925 km
RCS: Unknown
Launch date: November 25, 2020
Source: United States (US)
Launch site: AIR FORCE EASTERN TEST RANGE (AFETR)
aabbcc
Your satellite tracking list
Your tracking list is empty




NASA's NSSDC Master Catalog

Two Line Element Set (TLE):
1 47149U 20088AD  22025.81085550  .00000674  00000-0  64123-4 0  9993
2 47149  53.0531 212.7938 0002214  80.4492 279.6747 15.06410178 65907
Source of the keplerian elements: AFSPC